World > North America > United States > New York > West Chazy  

West Chazy, NY Hourly Weather Conditions

Feedback E-mail the Weather

Quick WX

WeatherWX.com

West Chazy, NY Weather Maps

°F °C°F °C
West Chazy Weather Map
UTC Time: 9/24/2023, 17:14
Your Time:

West Chazy, NY Regional Weather

Expires:202309241800;;928149
ASUS41 KBTV 241710
RWRBTV
VERMONT REGIONAL WEATHER ROUNDUP
NATIONAL WEATHER SERVICE BURLINGTON VT
100 PM EDT SUN SEP 24 2023

NOTE: "FAIR" INDICATES FEW OR NO CLOUDS BELOW 12,000 FEET WITH NO 
SIGNIFICANT WEATHER AND/OR OBSTRUCTIONS TO VISIBILITY.

* THESE REPORTS ARE NOT UNDER NWS QUALITY CONTROL AND/OR DO NOT
  REPORT WEATHER SUCH AS PRECIPITATION AND FOG.


NYZ007-026>031-035-052-083-087-241800-
_____NORTHERN NEW YORK_
  
CITY           SKY/WX    TMP DP  RH WIND       PRES   REMARKS
PLATTSBURGH    MOSUNNY   63  56  78 N5        30.19F TC  17           
SARANAC LAKE   MOSUNNY   65  42  43 E8        30.18F TC  18           
MASSENA        SUNNY     70  57  63 NE12      30.18F TC  21           
OGDENSBURG*    MOSUNNY   72  57  60 NE8G15    30.14F TC  22           
POTSDAM*       MOSUNNY   68  59  73 NE9       30.16F TC  20           
WATERTOWN      PTSUNNY   69  48  47 NE16      30.13F TC  21           
FT DRUM        CLOUDY    68  39  33 E12       30.11F TC  20           
ALBANY         CLOUDY    66  51  58 N9        30.13F TC  19           
GLENS FALLS    CLOUDY    63  47  55 N8        30.16F TC  17           

$$

SKY/WX - Weather  TMP - Temperature  DP - Dew Point  RH - Humidity
WIND - Wind Direction/Speed PRES - Barometric Pressure VSB - Visibility
WCI - Wind Chill Index E13G22 Wind - East Wind 13 mph/Gusts of 22 mph

Trending Headlines

Trending Entertainment Headlines

West Chazy Radar Loop

Use the map search tool if you want to place a location marker on the radar map...

West Chazy Quick Facts

National Two Day Weather Forecast


E-mail the West Chazy Weather Forecast

Voice your opinion or tell us about page issues...